Regional Weather Roundup
Issued by NWS

Home | Current Version | Previous Version | Text Only | Print | Product List | Glossary Off
Versions: 1 2 3 4 5 6 7 8 9 10 11 12 13 14 15 16 17 18 19 20 21 22 23 24 25 26 27 28 29 30 31 32 33 34 35 36 37 38 39 40 41 42 43 44 45 46 47 48 49 50

492
ASUS43 KLMK 301710
RWRKY
KENTUCKY REGIONAL WEATHER ROUNDUP
NATIONAL WEATHER SERVICE LOUISVILLE KY
100 PM EDT SAT JUL 30 2016

NOTE "FAIR" INDICATES FEW OR NO CLOUDS BELOW 12,000 FEET
WITH NO SIGNIFICANT WEATHER AND/OR OBSTRUCTIONS TO VISIBILITY.

KYZ001>023-026-027-061>063-070>075-301800-
WESTERN AND SOUTH CENTRAL KENTUCKY

CITY           SKY/WX    TMP DP  RH WIND       PRES   REMARKS
PADUCAH        CLOUDY    78  71  79 W7        30.01S
HENDERSON      MOSUNNY   82  70  65 W8        29.98S
OWENSBORO      PTSUNNY   84  74  72 W9        30.00R HX  91
HOPKINSVILLE   MOSUNNY   82  71  68 SW7       30.01S
BOWLING GREEN  CLOUDY    82  71  69 SW9       30.02S
GLASGOW        CLOUDY    76  71  83 W5        30.03S
$$

KYZ024-025-028>034-038-045-046-053-301800-
NORTH CENTRAL KENTUCKY

CITY           SKY/WX    TMP DP  RH WIND       PRES   REMARKS
LOUISVILLE/SDF PTSUNNY   84  70  62 VRB3      29.98F
LOUISVILLE/LOU PTSUNNY   83  69  62 SW5       29.99S
FORT KNOX      SUNNY     83  71  66 VRB6      29.98F
$$

KYZ035>037-039>044-047>052-055>060-089>105-301800-
NORTHEAST KENTUCKY

CITY           SKY/WX    TMP DP  RH WIND       PRES   REMARKS
LEXINGTON      PTSUNNY   82  70  66 W7        30.03R
COVINGTON      PTSUNNY   83  70  64 W9        29.99F
FRANKFORT      PTSUNNY   81  71  71 VRB5      30.00S
$$

KYZ054-064>069-076>088-106>120-301800-
SOUTHEAST KENTUCKY

CITY           SKY/WX    TMP DP  RH WIND       PRES   REMARKS
JACKSON        CLOUDY    81  72  74 CALM      30.04F
LONDON         PTSUNNY   81  68  64 SW7       30.04F
SOMERSET       CLOUDY    77  70  78 SW7       30.05S
MIDDLESBORO    PTSUNNY   82  72  72 SW5       30.05F
MONTICELLO     CLOUDY   N/A N/A N/A W13       30.06S
$$





USA.gov is the U.S. government's official web portal to all federal, state and local government web resources and services.